Jaipur, India

1:54 AM IST on June 29, 2017 (GMT +0530)
Jaipur

Weather History for VIJP - April, 2013

Change the Weather History Date:

Tuesday, April 9, 2013

  Actual Average Record
Temperature  
Mean Temperature 87 °F -  
Max Temperature 95 °F - - ()
Min Temperature 79 °F - - ()
Cooling Degree Days 22    
Growing Degree Days 37 (Base 50)    
Moisture  
Dew Point 42 °F    
Average Humidity 19    
Maximum Humidity 30    
Minimum Humidity 9    
Precipitation  
Precipitation 0.00 in - - ()
Sea Level Pressure  
Sea Level Pressure 29.80 in    
Wind  
Wind Speed 5 mph ()    
Max Wind Speed 12 mph    
Max Gust Speed -    
Visibility 2.3 miles    
Events      
T = Trace of Precipitation, MM = Missing Value Source: Averaged Metar Reports

Daily Weather History Graph

Daily Weather History Graph

Search for Another Location

Airport or City:

Trip Planner

Search our weather history database for the weather conditions in past years. The results will help you decide how hot, cold, wet, or windy it might be!

Date:

Astronomy

Apr. 09, 2013 Rise Set
Actual Time 6:09 AM IST 6:47 PM IST
Civil Twilight 5:45 AM IST 7:11 PM IST
Nautical Twilight 5:18 AM IST 7:39 PM IST
Astronomical Twilight 4:50 AM IST 8:07 PM IST
Moon 5:11 AM IST (4/9) 5:57 PM IST (4/9)
Length of Visible Light 13h 25m
Length of Day
12h 38m
Waning Crescent, 1% of the Moon is Illuminated
Apr 9
Waning Crescent
Apr 10
New
Apr 18
First Quarter
Apr 26
Full
May 2
Last Quarter

Hourly Weather History & Observations

Time (IST) Temp. Dew Point Humidity Pressure Visibility Wind Dir Wind Speed Gust Speed Precip Events Conditions
12:00 AM 86.0 °F 37.4 °F 18% 29.83 in 2.2 mi WNW 4.6 mph - N/A   Haze
1:00 AM 82.4 °F 37.4 °F 20% 29.83 in 2.2 mi NW 4.6 mph - N/A   Haze
2:00 AM 82.4 °F 39.2 °F 21% 29.80 in 2.2 mi NW 5.8 mph - N/A   Haze
2:30 AM 83 °F 40 °F 13% 29.73 in 1 mi NW 4.6 mph - -   Haze
3:00 AM 80.6 °F 39.2 °F 23% 29.77 in 2.2 mi Variable 4.6 mph - N/A   Haze
5:00 AM 80.6 °F 41.0 °F 24% 29.80 in 2.2 mi NW 5.8 mph - N/A   Haze
5:30 AM 80 °F 42 °F 16% 29.73 in 1 mi NW 6.9 mph - -   Haze
5:30 AM 80.6 °F 41.0 °F 24% 29.80 in 2.2 mi NW 6.9 mph - N/A   Haze
6:00 AM 80.6 °F 42.8 °F 26% 29.80 in 2.2 mi NW 6.9 mph - N/A   Haze
7:00 AM 80.6 °F 44.6 °F 28% 29.83 in 2.2 mi Variable 8.1 mph - N/A   Haze
8:00 AM 80.6 °F 46.4 °F 30% 29.86 in 2.5 mi Variable 6.9 mph - N/A   Haze
8:30 AM 82 °F 48 °F 20% 29.78 in 2 mi SW 9.2 mph - -   Haze
9:00 AM 84.2 °F 46.4 °F 27% 29.89 in 2.5 mi NW 6.9 mph - N/A   Haze
10:00 AM 87.8 °F 46.4 °F 24% 29.89 in 2.5 mi Variable 6.9 mph - N/A   Haze
11:30 AM 92 °F 44 °F 11% 29.76 in 2 mi NW 4.6 mph - -   Haze
1:00 PM 93.2 °F 42.8 °F 17% 29.86 in 3.1 mi Variable 6.9 mph - N/A   Haze
2:00 PM 93.2 °F 41.0 °F 16% 29.80 in 3.1 mi NW 5.8 mph - N/A   Haze
2:30 PM 94 °F 42 °F 9% 29.71 in 2 mi WNW 4.6 mph - -   Haze
3:00 PM 95.0 °F 41.0 °F 15% 29.80 in 3.1 mi Variable 4.6 mph - N/A   Haze
4:00 PM 93.2 °F 39.2 °F 15% 29.77 in 3.1 mi Variable 3.5 mph - N/A   Haze
5:00 PM 95.0 °F 37.4 °F 13% 29.74 in 3.1 mi West 8.1 mph - N/A   Haze
6:00 PM 93.2 °F 39.2 °F 15% 29.74 in 3.1 mi West 8.1 mph - N/A   Haze
7:30 PM 89.6 °F 41.0 °F 18% 29.80 in 2.5 mi West 8.1 mph - N/A   Haze
8:00 PM 89.6 °F 41.0 °F 18% 29.80 in 2.5 mi West 8.1 mph - N/A   Haze
8:30 PM 90 °F 43 °F 11% 29.70 in 2 mi NW 3.5 mph - -   Haze
8:30 PM 89.6 °F 39.2 °F 17% 29.80 in 2.5 mi NW 3.5 mph - N/A   Haze
9:00 PM 87.8 °F 41.0 °F 19% 29.80 in 2.5 mi Calm Calm - N/A   Haze
9:30 PM 86.0 °F 42.8 °F 22% 29.83 in 2.2 mi Calm Calm - N/A   Haze
10:00 PM 86.0 °F 41.0 °F 20% 29.83 in 2.2 mi WNW 4.6 mph - N/A   Haze
11:00 PM 86.0 °F 42.8 °F 22% 29.83 in 2.2 mi NNW 11.5 mph - N/A   Haze